Regional Weather Roundup
Issued by NWS Cleveland, OH

Home | Current Version | Previous Version | Text Only | Print | Product List | Glossary On
Versions: 1 2 3 4 5 6 7 8 9 10 11 12 13 14 15 16 17 18 19 20 21 22 23 24 25 26 27 28 29 30 31 32 33 34 35 36 37 38 39 40 41 42 43 44 45 46 47 48 49 50
000
ASUS41 KCLE 180110
RWRCLE
OHIO REGIONAL WEATHER ROUNDUP
NATIONAL WEATHER SERVICE WILMINGTON, OH
800 PM EST WED DEC 17 2014

NOTE: "FAIR" INDICATES FEW OR NO CLOUDS BELOW 12,000 FEET WITH NO
SIGNIFICANT WEATHER AND/OR OBSTRUCTIONS TO VISIBILITY.

OHZ001>008-015>018-024>027-034-035-043-044-180200-
   NORTHWEST OHIO

CITY           SKY/WX    TMP DP  RH WIND       PRES   REMARKS
DEFIANCE       NOT AVBL
FINDLAY        CLOUDY    29  22  75 W16       30.19R WCI  17
TOLEDO EXPRESS CLOUDY    28  19  69 W12       30.17S WCI  18
TOLEDO METCALF CLOUDY    30  19  63 W18       30.18R WCI  18
LIMA           CLOUDY    30  21  69 W15       30.20S WCI  19
$$

OHZ009>014-019>023-028>033-038-089-180200-
   NORTHEAST OHIO

CITY           SKY/WX    TMP DP  RH WIND       PRES   REMARKS
CLE-HOPKINS    FLURRIES  29  21  72 W13       30.17R WCI  19
CLE-LAKEFRONT  CLOUDY    31  23  72 W24G30    30.13R WCI  17
CUY CO. ARPT   CLOUDY    32  25  74 W14G23    30.12S WCI  22
LORAIN-ELYRIA  CLOUDY    29  21  72 NW17G25   30.16R WCI  17
ASHTABULA      MIX PCPN  30  24  78 W15       30.09S WCI  19
AKRON-CANTON   FLURRIES  29  21  72 W14G21    30.12R WCI  18
WOOSTER        MIX PCPN  27  22  81 W16       30.15R WCI  15
MANSFIELD      CLOUDY    26  21  81 W10       30.15S WCI  16
YOUNGSTOWN     CLOUDY    29  21  72 W18G24    30.09R WCI  16
$$

OHZ042-051>053-060>062-070>072-077>081-180200-
  SOUTHWEST OHIO

CITY           SKY/WX    TMP DP  RH WIND       PRES   REMARKS
CINC-COVINGTON CLOUDY    29  20  69 NW10      30.24S WCI  20
CINC-LUNKEN    CLOUDY    29  22  75 VRB7      30.28S WCI  22
HAMILTON       CLOUDY    29  23  78 NW10      30.28R WCI  20
DAYTON         CLOUDY    26  20  77 W15       30.24S WCI  14
WRIGHT-PAT AFB CLOUDY    26  21  80 W12       30.24S WCI  16
DAYTON GENERAL CLOUDY    27  22  81 NW8       30.23S WCI  19
WILMINGTON     CLOUDY    27  21  78 W13       30.22S WCI  16
$$

OHZ036-037-039>041-045>050-054>059-063>069-073>076-082>088-180200-
  CENTRAL AND SOUTHEAST OHIO

CITY           SKY/WX    TMP DP  RH WIND       PRES   REMARKS
COLUMBUS       CLOUDY    27  21  78 W12       30.21R WCI  17
OSU AIRPORT    CLOUDY    27  22  81 W13       30.21R WCI  16
BOLTON FIELD   CLOUDY    27  21  78 W14G22    30.22S WCI  16
RICKENBACK AFB CLOUDY    28  22  80 W12       30.22S WCI  18
NEWARK         CLOUDY    29  23  78 W10       30.19S WCI  20
MARION         CLOUDY    27  20  75 W16G23    30.20R WCI  15
LANCASTER      CLOUDY    29  22  75 NW12      30.21S WCI  19
ZANESVILLE     CLOUDY    29  22  75 W10       30.18R WCI  20
NEW PHILLY     CLOUDY    31  23  72 W9        30.17R WCI  23
$$


USA.gov is the U.S. government's official web portal to all federal, state and local government web resources and services.